Weather History for PAMR - February, 2012

Change the Weather History Date:

Thursday, February 9, 2012

  Actual Average Record
Temperature  
Mean Temperature 32 °F -  
Max Temperature 42 °F 26 °F 21 °F (2014)
Min Temperature 23 °F 13 °F 0 °F (2014)
Degree Days  
Heating Degree Days 32    
Moisture  
Dew Point 24 °F    
Average Humidity 72    
Maximum Humidity 84    
Minimum Humidity 51    
Precipitation  
Precipitation 0.00 in - - ()
Snow  
Snow 0.00 in - - ()
Snow Depth 21.00 in    
Sea Level Pressure  
Sea Level Pressure 29.64 in    
Wind  
Wind Speed 5 mph (West)    
Max Wind Speed 10 mph    
Max Gust Speed 17 mph    
Visibility 10 miles    
Events      
Averages and records for this station are not official NWS values.
T = Trace of Precipitation, MM = Missing Value Source: NWS Daily Summary

Daily Weather History Graph

Daily Weather History Graph

Search for Another Location

Airport or City:

Trip Planner

Search our weather history database for the weather conditions in past years. The results will help you decide how hot, cold, wet, or windy it might be!

Date:

Astronomy

Feb. 09, 2012 Rise Set
Actual Time 8:59 AM AKST 5:28 PM AKST
Civil Twilight 8:12 AM AKST 6:16 PM AKST
Nautical Twilight 7:20 AM AKST 7:07 PM AKST
Astronomical Twilight 6:30 AM AKST 7:57 PM AKST
Moon 9:13 PM AKST (2/9) 8:46 AM AKST (2/9)
Length of Visible Light 10h 03m
Length of Day
8h 29m
Waning Gibbous, 95% of the Moon is Illuminated
Feb 9
Waning Gibbous
Feb 14
Last Quarter
Feb 21
New
Feb 29
First Quarter
Mar 8
Full

Hourly Weather History & Observations

Time (AKST) Temp. Windchill Dew Point Humidity Pressure Visibility Wind Dir Wind Speed Gust Speed Precip Events Conditions
12:53 AM 37.0 °F 32.4 °F 30.9 °F 79% 29.54 in 10.0 mi WSW 5.8 mph - N/A   Mostly Cloudy
1:53 AM 42.1 °F 38.4 °F 30.0 °F 62% 29.58 in 10.0 mi NW 5.8 mph - N/A   Mostly Cloudy
2:53 AM 42.1 °F 39.2 °F 27.0 °F 55% 29.64 in 10.0 mi Variable 4.6 mph - N/A   Scattered Clouds
3:53 AM 42.1 °F 37.1 °F 25.0 °F 51% 29.68 in 10.0 mi SSE 8.1 mph - N/A   Scattered Clouds
4:53 AM 36.0 °F 30.3 °F 27.0 °F 70% 29.69 in 10.0 mi NW 6.9 mph - N/A   Scattered Clouds
5:53 AM 37.9 °F 30.9 °F 26.1 °F 62% 29.70 in 10.0 mi NW 10.4 mph 17.3 mph N/A   Scattered Clouds
6:53 AM 34.0 °F 26.6 °F 26.1 °F 73% 29.75 in 10.0 mi South 9.2 mph - N/A   Scattered Clouds
7:53 AM 37.0 °F 31.0 °F 25.0 °F 62% 29.72 in 10.0 mi West 8.1 mph 17.3 mph N/A   Scattered Clouds
8:53 AM 30.9 °F 26.2 °F 25.0 °F 79% 29.76 in 10.0 mi South 4.6 mph - N/A   Mostly Cloudy
9:53 AM 33.1 °F 26.9 °F 24.1 °F 70% 29.76 in 10.0 mi West 6.9 mph - N/A   Scattered Clouds
10:53 AM 35.1 °F 32.2 °F 24.1 °F 64% 29.78 in 10.0 mi NNW 3.5 mph - N/A   Mostly Cloudy
11:53 AM 34.0 °F 31.0 °F 25.0 °F 70% 29.77 in 10.0 mi Variable 3.5 mph - N/A   Scattered Clouds
12:53 PM 32.0 °F - 25.0 °F 75% 29.75 in 10.0 mi Calm Calm - N/A   Mostly Cloudy
1:53 PM 30.9 °F 27.5 °F 24.1 °F 76% 29.73 in 10.0 mi West 3.5 mph - N/A   Mostly Cloudy
2:53 PM 32.0 °F - 24.1 °F 73% 29.69 in 10.0 mi Calm Calm - N/A   Clear
3:53 PM 28.9 °F - 21.9 °F 75% 29.64 in 10.0 mi Calm Calm - N/A   Clear
4:53 PM 28.9 °F - 23.0 °F 78% 29.60 in 10.0 mi Calm Calm - N/A   Clear
5:53 PM 27.0 °F - 19.9 °F 75% 29.56 in 10.0 mi Calm Calm - N/A   Clear
6:53 PM 23.0 °F - 17.1 °F 78% 29.55 in 10.0 mi Calm Calm - N/A   Clear
7:53 PM 24.1 °F - 18.0 °F 77% 29.52 in 10.0 mi Calm Calm - N/A   Overcast
8:53 PM 24.1 °F - 19.0 °F 81% 29.49 in 10.0 mi Calm Calm - N/A   Partly Cloudy
9:53 PM 24.1 °F - 19.9 °F 84% 29.47 in 10.0 mi Calm Calm - N/A   Mostly Cloudy
10:53 PM 26.1 °F - 19.9 °F 78% 29.46 in 10.0 mi Calm Calm - N/A   Mostly Cloudy
11:53 PM 26.1 °F - 21.0 °F 81% 29.45 in 10.0 mi Calm Calm - N/A   Overcast